User: anonymous   Login
Location: �perlecques
(50.8057°N, 2.1521°E)
Time: 16:20:22
(UTC+00:00)
Language:

YUBILEINY - Orbit

View from above orbital plane
View from above orbital plane
View from above satellite
View from above satellite

Ground track
Ground track

The orbit data is extracted from the following two-line orbital elements,

1 32953U 08025A   24109.11360261  .00000053  00000-0  31307-3 0  9998
2 32953  82.4987 126.8562 0018337 233.5308 126.4083 12.43138896721669
Epoch (UTC): 18 April 2024 02:43:35
Eccentricity: 0.0018337
inclination: 82.4987°
perigee height: 1479 km
apogee height: 1508 km
right ascension of ascending node: 126.8562°
argument of perigee: 233.5308°
revolutions per day: 12.43138896
mean anomaly at epoch: 126.4083°
orbit number at epoch: 72166

The dashed part of the orbit path shows where the satellite is in the earth's shadow,  

DLR